Regional Weather Roundup
Issued by NWS Midland/Odessa, TX

Skip options and go directly to product.
Home | Oldest Version | Previous Version | Current Version | All | Graphics & Text | Save Text | Print | Product List | Glossary On

Skip product version selection by date and time.   
647
ASUS44 KMAF 301010
RWRMAF
MIDLAND AREA WEATHER ROUNDUP
NATIONAL WEATHER SERVICE MIDLAND TX
500 AM CDT SAT MAY 30 2015

...IN SOUTHWEST TEXAS AND SOUTHEAST NEW MEXICO...

CITY           SKY/WX    TMP DP  RH WIND       PRES   REMARKS
ALPINE         MOCLDY    61  55  80 NE6       30.16R
ANDREWS        MOCLDY    60  58  94 NW6       30.13R
ARTESIA        CLOUDY    59  57  94 NW8       30.17R
BIG SPRING     MOCLDY    64  54  69 NE5       30.08R
CARLSBAD       LGT RAIN  58  56  93 E13G22    30.14S
DRYDEN           N/A     73  69  87 NE15      30.01R
FORT STOCKTON  MOCLDY    66  61  84 E17       30.05F
GUAD PASS      MOCLDY    61  60  97 NE29      30.18R
HOBBS          TSTM      59  55  88 N16       30.21R
MARFA          PTCLDY    55  52  88 N6        30.12F
MIDLAND AIRPK  PTCLDY    62  58  88 N5        30.12R
MIDLAND INTL   PTCLDY    61  58  90 N10       30.11R
ODESSA         PTCLDY    61  57  87 NE8       30.12R
PECOS          MOCLDY    65  56  70 CALM      30.05R
PRESIDIO       FAIR      76  53  44 MISG      29.97R
SEMINOLE       CLOUDY    60  53  78 N13G21    30.16R
SNYDER         CLOUDY    61  57  87 NE8       30.07R
WINK           PTCLDY    67  53  61 E8        30.05R
$$
...OTHER STATIONS IN TEXAS...

CITY           SKY/WX    TMP DP  RH WIND       PRES   REMARKS
ABILENE        LGT RAIN  63  60  90 N12       30.02F
AMARILLO       CLOUDY    57  52  83 N18       30.22R
AUSTIN         PTCLDY    68  68 100 CALM      29.99R
BROWNSVILLE    PTCLDY    75  74  96 SE3       29.93S
CORPUS CHRISTI MOCLDY    75  73  93 S6        29.94S
DALLAS FTW     CLOUDY    70  69  97 E5        29.95S
DEL RIO        PTCLDY    73  71  93 E9        29.93R
EL PASO        MOCLDY    71  33  24 N6        30.02S
HOUSTON INT    MOCLDY    73  72  96 CALM      29.98R
LUBBOCK        CLOUDY    58  54  86 N5        30.15R
SAN ANGELO     LGT RAIN  64  60  87 E21G26    29.98F
SAN ANTONIO    MOCLDY    74  71  91 S6        29.99S
WACO           MOCLDY    73  68  84 S12       29.97R
WICHITA FALLS  NOT AVBL
$$
...OTHER LOCATIONS IN NEW MEXICO...

CITY           SKY/WX    TMP DP  RH WIND       PRES   REMARKS
ALAMAGORDO     CLEAR     64  36  34 SE6       30.07S
ALBUQUERQUE    PTCLDY    60  44  55 E23G35    30.22R
CANNON AFB     CLOUDY    56  53  88 NE14      30.23R
CLOVIS         CLOUDY    55  52  88 NE12      30.23R
HOLLOMAN AFB   MOCLDY    64  43  46 CALM      30.06R
ROSWELL        CLOUDY    60  55  83 N14       30.15F
RUIDOSO        MOCLDY    55  46  71 SW6       30.33R
SANTA FE       CLEAR     53  42  66 S13       30.29R
TRUTH OR CONSE CLEAR     65  46  50 N20G31    30.13S
TUCUMCARI      CLOUDY    54  50  86 NE7       30.24R
$$

USA.gov is the U.S. government's official web portal to all federal, state and local government web resources and services.